FLOCK 4BE-34

Last updated on Mon Sep 16 2024 00:02:03 GMT+0000 (Coordinated Universal Time)

1 60495U 24149AD 24258.89988864 .00016916 00000+0 82097-3 0 9996 2 60495 97.4426 334.0176 0004804 29.1315 331.0187 15.18540507 4417
UTC large
Height (km)
Speed (km/s)
/
Latitude / Longitude
Inclination (degrees)
Orbital Period (minutes)
Azimuth
Elevation
Range (km)
Doppler Factor

Next 0 passes for location: London (51.5072 / 0.1276)

Sorry there are no passes over London.